map of EGYD home
EGYD - Airport
Location
City:  Cranwell, Lincolnshire, England, United Kingdom
Near (Alt.):Cranwell South
Name:RAF Cranwell
ICAO:EGYD

Details
Type:Airport (Aerodrome, Airfield)
Use:Military
Latitude:5301'49"N (53.030350)
Longitude:029'00"W (-0.483241)
Datum:WGS 1984
Elevation:218 ft (66 m)
Variation:0.38W (WMM2015v2 magnetic declination)
0.20 annual change
Runways:3
Longest:6831 × 147 ft (2082 × 45 m), paved

Time
Time Zone:UTC+0 (DST+1)
Local Time:

Weather
METAR:EGYD 041350Z 28015KT 9999 FEW023 10/04 Q1014 BLU NOSIG

Related Locations
Nearby:
Farthest:NZBA: 11793 mi / 18979 km
Balclutha, OTA, NZ

Find:

   beyond  
but within

Other Information
Maps:
NOTAMs:
Links:
Sources:

  
  • flag of United Kingdom
  • flag of England
  • flag of Lincolnshire
  • flag of Royal Air Force
  

Sectional Chart

Flight Planning
at skyvector.com

Satellite Image

Google Maps Satellite view

 

Copyright © 2004-2019 Karl L. Swartz. All rights reserved.
The Great Circle Mapper name and logo are trademarks of the Great Circle Mapper.
All other trademarks mentioned herein belong to their respective owners.
Please see credits for attibutions and further copyright information.

  Follow gcmap on Facebook Follow gcmap on Twitter GCmap on LinkedIn

hCard Microformat

Geo Microformat